Location: Unspecified
(48.5670°N, 0.0000°E)
Time: 17:02:36
(UTC+00:00)

Transit 4A - Pass Details

Date: 25 August 2019
Orbit: 866 x 978 km, 66.8° (Epoch: 15 October)

Event Time Altitude Azimuth Distance (km) Brightness Sun altitude
Rises 23:45:14 0° 322° (NW) 3,662 11.8 -30.7°
Reaches altitude 10° 23:48:25 10° 337° (NNW) 2,698 11.1 -30.8°
Maximum altitude 23:53:20 23° 28° (NNE) 1,887 10.0 -30.8°
Drops below altitude 10° 23:58:08 10° 80° (E) 2,633 10.3 -30.8°
Enters shadow 00:01:02 - 94° (E) 3,501 10.9 -30.9°
